San Simeon, California, United States (93452)
Lat: 35.64N, Lon: 121.19W
Wx Zone: CAZ034
Local Info
Past Weather Observations for Today

NOTE: This archive is for the closest National Weather Service station to San Simeon. Information may differ from the station used for current weather conditions.

Click here for Long-term Archive

Time Weather Temperature Dewpoint Humidity Pressure Winds Precip Visibility
14:20
Overcast
57°F / 14°C 50°F / 10°C 77% 30.18 in
(1022 mb)
NE 4.6 mph
(NE 7 kph)
- 10SM
14:10
Overcast
59°F / 15°C 48°F / 9°C 68% 30.18 in
(1022 mb)
Calm - 10SM
13:53
Overcast
57°F / 14°C 48°F / 9°C 72% 30.18 in
(1022 mb)
Calm - 10SM
13:38
Mostly Cloudy
57°F / 14°C 48°F / 9°C 72% 30.18 in
(1022 mb)
SSE 3.5 mph
(SSE 6 kph)
- 10SM
12:53
Mostly Cloudy
57°F / 14°C 48°F / 9°C 72% 30.18 in
(1022 mb)
Calm - 10SM
12:46
Overcast
57°F / 14°C 48°F / 9°C 72% 30.18 in
(1022 mb)
Calm - 10SM
12:30
Mostly Cloudy
55°F / 13°C 48°F / 9°C 77% 30.21 in
(1023 mb)
Calm - 10SM
12:02
Mostly Cloudy
55°F / 13°C 48°F / 9°C 77% 30.21 in
(1023 mb)
SE 3.5 mph
(SE 6 kph)
- 10SM
11:53
Mostly Cloudy
55°F / 13°C 48°F / 9°C 77% 30.21 in
(1023 mb)
Calm - 10SM
10:53
Overcast
52°F / 11°C 46°F / 8°C 82% 30.27 in
(1025 mb)
Calm - 10SM
09:53
Clear
52°F / 11°C 48°F / 9°C 88% 30.24 in
(1024 mb)
E 4.6 mph
(E 7 kph)
- 10SM
08:53
Partly Cloudy
46°F / 8°C 45°F / 7°C 93% 30.21 in
(1023 mb)
SSE 3.5 mph
(SSE 6 kph)
- 10SM
08:43
Partly Cloudy
46°F / 8°C 45°F / 7°C 93% 30.21 in
(1023 mb)
S 3.5 mph
(S 6 kph)
- 10SM
08:32
Overcast
Fog And Mist
46°F / 8°C 45°F / 7°C 93% 30.21 in
(1023 mb)
Calm - 3SM
08:18
Overcast
Fog And Mist
46°F / 8°C 45°F / 7°C 93% 30.21 in
(1023 mb)
Calm - 1 3/4SM
08:07
Mostly Cloudy
46°F / 8°C 45°F / 7°C 93% 30.21 in
(1023 mb)
SE 3.5 mph
(SE 6 kph)
- 8SM
08:00
Partly Cloudy
46°F / 8°C 45°F / 7°C 93% 30.21 in
(1023 mb)
Calm - 9SM
07:53
Partly Cloudy
Fog And Mist
46°F / 8°C 43°F / 6°C 87% 30.21 in
(1023 mb)
SW 3.5 mph
(SW 6 kph)
- 2 1/2SM
07:44
Partly Cloudy
Fog And Mist
45°F / 7°C 43°F / 6°C 93% 30.21 in
(1023 mb)
Calm - 2 1/2SM
06:53
Mostly Cloudy
Fog And Mist
45°F / 7°C 43°F / 6°C 93% 30.21 in
(1023 mb)
SE 5.8 mph
(SE 9 kph)
- 6SM
06:49
Mostly Cloudy
Fog And Mist
45°F / 7°C 43°F / 6°C 93% 30.21 in
(1023 mb)
SE 3.5 mph
(SE 6 kph)
- 3SM
06:33
Mostly Cloudy
Fog And Mist
45°F / 7°C 43°F / 6°C 93% 30.24 in
(1024 mb)
Calm - 1 3/4SM
05:53
Clear
46°F / 8°C 45°F / 7°C 93% 30.21 in
(1023 mb)
ENE 3.5 mph
(ENE 6 kph)
- 8SM
04:53
Overcast
46°F / 8°C 45°F / 7°C 93% 30.21 in
(1023 mb)
SSW 3.5 mph
(SSW 6 kph)
- 10SM
03:53
Overcast
48°F / 9°C 45°F / 7°C 87% 30.21 in
(1023 mb)
SE 3.5 mph
(SE 6 kph)
- 10SM
03:39
Overcast
48°F / 9°C 46°F / 8°C 94% 30.21 in
(1023 mb)
Calm - 10SM
02:53
Overcast
48°F / 9°C 46°F / 8°C 94% 30.24 in
(1024 mb)
E 5.8 mph
(E 9 kph)
- 10SM
01:53
Overcast
48°F / 9°C 46°F / 8°C 94% 30.21 in
(1023 mb)
Calm - 10SM
00:53
Overcast
48°F / 9°C 45°F / 7°C 87% 30.18 in
(1022 mb)
E 3.5 mph
(E 6 kph)
- 10SM
Time Weather Temperature Dewpoint Humidity Pressure Winds Precip Visibility


Weather for websites

WeatherForYou.com, LLC is not responsible for any damages or problems caused by this service. Current weather conditions are obtained from the closest station including government and personal stations which may have varying degrees of accuracy. Weather forecasts are derived from the NOAA NDFD. Like all things, this site belongs to Jesus Christ... He just trusts me to maintain it. If you have any questions or comments email webmaster@weatherforyou.com

Copyright © 2014, WeatherForYou.com LLC. All rights reserved.